Temp
10 10 9 9 9 9 9 9 9 8 8 8 9 9 9 9 9 9 10 9 9 9 9 9 9 9 9 9 10 9 9 11 12 13 13 13 13 12 12 12 12 11 12 12 11
9 9 9 9 9 9 9 9 9 9 9 8 8 9 9 9 9 9 10 9 9 9 9 9 10 8 8 9 10 10 10 11 11 12 12 12 12 12 12 12 12 12 12 11 11
9 9 9 9 8 9 9 8 8 8 8 9 8 8 9 9 9 9 9 9 9 9 9 9 9 9 9 9 10 10 10 11 11 12 12 12 12 12 12 12 12 12 12 11 11
9 9 9 8 8 8 9 8 8 8 8 8 9 9 9 9 9 10 9 9 9 9 9 9 9 9 8 9 10 10 11 11 11 11 11 11 12 12 12 11 11 11 11 10 10
8 8 8 8 8 8 8 8 8 8 8 8 8 9 9 9 9 10 9 9 9 9 9 9 9 8 8 9 10 11 11 11 11 11 11 11 11 10 11 11 11 11 11 11 10
8 8 8 8 8 8 8 8 8 8 8 8 8 8 9 9 9 9 9 9 9 10 9 9 9 10 9 9 9 10 11 11 10 11 11 10 10 10 11 11 11 11 11 11 11
8 8 8 8 8 8 7 7 7 8 7 8 8 8 8 8 8 9 9 9 9 9 9 10 10 9 9 10 10 10 10 11 11 11 11 11 10 10 11 11 11 11 11 10 10
8 8 7 8 8 8 7 7 7 7 7 7 8 8 8 8 8 8 8 8 8 8 8 8 9 9 9 9 9 9 10 11 12 12 11 10 11 11 11 11 11 11 10 10 10
8 8 8 7 8 7 7 7 7 7 7 7 8 8 8 7 7 8 8 8 8 8 8 8 8 9 9 9 10 10 10 10 11 12 11 11 11 11 10 10 11 10 10 10 10
7 7 7 7 7 7 7 7 7 7 7 7 8 8 8 7 6 7 8 8 8 7 8 8 8 8 9 8 8 9 10 10 11 11 11 11 10 10 12 10 10 10 10 10 10
7 7 7 7 7 7 7 7 6 6 7 7 8 8 8 7 7 7 7 8 8 8 8 7 6 8 8 8 9 9 10 10 11 11 11 11 11 10 10 10 10 10 10 10 10
6 6 6 6 6 6 6 6 6 6 7 8 8 9 6 7 6 7 7 7 8 8 7 7 8 8 8 9 9 9 9 10 10 10 10 10 10 10 10 11 11 11 10 10 10
6 6 6 6 6 6 5 6 6 5 4 8 8 7 7 6 6 5 6 6 6 6 6 7 8 8 8 8 9 9 9 9 9 9 10 9 10 10 11 10 10 11 11 10 10
6 5 6 6 5 6 5 6 6 5 4 7 7 7 7 7 6 6 6 7 6 6 7 6 8 8 8 8 8 8 8 9 9 8 8 9 6 9 11 11 10 10 10 10 10
5 5 5 5 5 5 5 6 5 4 1 6 6 7 7 7 7 6 7 7 7 7 7 7 8 8 7 8 8 8 8 8 8 8 7 9 6 10 11 11 10 9 10 10 10
5 4 5 5 5 5 5 5 4 2 2 6 7 7 7 7 7 7 7 7 7 7 7 8 8 8 8 8 8 8 8 7 7 7 5 10 7 8 10 11 10 9 9 9 9
5 4 4 4 5 3 4 3 2 1 4 6 6 6 6 7 7 6 7 7 7 7 7 7 8 8 8 8 8 7 7 6 6 5 4 9 8 9 9 10 10 10 9 7 7
4 3 4 4 4 3 3 2 -0 2 4 6 6 5 5 6 6 6 6 6 6 7 7 7 7 8 8 8 8 7 7 6 4 3 5 7 7 9 8 9 9 8 7 6 5
3 3 3 4 3 3 2 -0 1 1 3 4 6 5 5 6 6 6 6 6 6 7 7 7 7 7 7 7 7 7 7 7 6 6 5 6 7 7 8 7 7 7 5 4 3
2 3 2 3 2 2 1 2 1 3 3 2 3 4 4 6 6 6 6 6 6 6 6 6 6 6 7 7 7 6 6 6 6 3 2 6 6 7 7 6 6 4 4 3 2
2 2 2 2 2 1 2 1 1 1 3 2 2 3 3 4 5 6 6 6 5 5 5 5 5 5 5 6 6 6 6 6 5 5 1 1 5 6 6 6 5 4 3 2 2
2 0 2 2 2 1 2 2 1 2 2 1 1 2 3 3 4 5 5 5 4 4 4 4 4 4 4 5 5 5 5 5 5 4 5 4 4 5 5 6 5 4 3 2 1
1 1 0 1 1 2 2 1 1 1 1 1 1 1 2 2 3 3 3 4 4 3 3 2 1 1 3 4 4 4 4 4 4 4 4 3 3 5 5 4 3 3 2 2 2
-0 -1 -2 -0 0 2 1 2 1 1 1 1 1 1 1 1 1 2 2 3 3 2 2 2 1 1 1 4 4 3 3 3 3 2 3 3 4 3 4 4 3 2 2 1 1
-1 -1 -1 -1 -1 -0 0 1 1 1 1 1 1 1 1 1 1 1 1 1 1 1 1 1 1 1 1 1 1 1 1 1 2 3 1 4 2 2 2 2 2 2 1 0 0
-1 -1 -1 -1 -1 -0 0 1 1 1 1 1 1 1 1 1 1 1 1 1 1 1 0 1 0 0 -0 -0 -1 -1 1 1 1 1 1 2 2 2 1 1 1 1 -0 -0 -1
-1 -1 -1 -1 -1 -1 -0 0 1 1 1 1 1 1 1 2 1 1 1 0 1 0 -0 -0 -1 -1 -2 -1 -2 -2 2 3 3 3 1 -0 4 1 0 -0 -0 -1 -1 -1 -1
Height
3163 3164 3164 3163 3163 3162 3160 3159 3157 3153 3150 3147 3145 3143 3142 3141 3140 3140 3140 3141 3141 3140 3140 3141 3141 3142 3143 3144 3146 3148 3148 3146 3147 3147 3147 3145 3147 3148 3150 3149 3151 3149 3148 3149 3150
3162 3162 3162 3162 3161 3161 3159 3158 3156 3154 3151 3148 3145 3142 3141 3139 3138 3138 3140 3139 3139 3140 3140 3141 3141 3138 3141 3144 3146 3147 3146 3145 3147 3149 3147 3146 3145 3147 3149 3148 3147 3148 3144 3145 3145
3159 3158 3159 3160 3159 3160 3158 3157 3155 3153 3150 3148 3145 3142 3140 3138 3137 3136 3137 3138 3138 3138 3139 3139 3140 3139 3140 3142 3143 3145 3144 3144 3145 3146 3143 3143 3143 3145 3147 3147 3147 3142 3140 3141 3142
3156 3157 3156 3158 3157 3157 3157 3155 3153 3151 3148 3147 3144 3142 3138 3137 3138 3134 3135 3137 3137 3137 3138 3139 3139 3138 3139 3140 3142 3143 3143 3143 3143 3143 3141 3141 3141 3141 3143 3145 3145 3142 3139 3138 3138
3153 3153 3153 3154 3155 3154 3153 3154 3151 3149 3147 3144 3142 3140 3138 3135 3133 3133 3134 3134 3134 3135 3136 3136 3137 3136 3136 3135 3137 3138 3140 3140 3140 3140 3139 3139 3139 3139 3139 3141 3142 3142 3141 3136 3135
3149 3151 3150 3151 3151 3151 3150 3151 3149 3147 3144 3142 3140 3138 3136 3133 3131 3129 3130 3130 3130 3132 3133 3132 3132 3133 3133 3133 3134 3133 3132 3133 3133 3134 3135 3136 3136 3137 3136 3137 3137 3138 3139 3139 3137
3144 3146 3146 3147 3148 3148 3148 3147 3146 3144 3142 3140 3137 3135 3133 3132 3128 3127 3127 3126 3127 3128 3128 3128 3130 3131 3131 3132 3132 3130 3130 3130 3128 3129 3130 3133 3132 3132 3132 3132 3133 3134 3133 3133 3134
3138 3141 3143 3143 3144 3144 3143 3143 3143 3141 3139 3136 3134 3132 3131 3128 3127 3127 3127 3126 3125 3126 3126 3127 3128 3128 3128 3129 3129 3129 3129 3126 3125 3124 3127 3130 3129 3130 3127 3126 3130 3131 3131 3130 3129
3133 3135 3138 3139 3140 3140 3139 3139 3139 3137 3135 3133 3132 3129 3126 3124 3123 3123 3124 3124 3124 3124 3124 3126 3126 3126 3127 3126 3127 3128 3124 3127 3122 3123 3124 3128 3128 3129 3128 3127 3127 3127 3127 3127 3124
3128 3129 3131 3134 3134 3134 3135 3134 3135 3133 3131 3129 3128 3128 3124 3123 3121 3116 3117 3119 3120 3119 3120 3122 3123 3123 3124 3125 3124 3125 3123 3124 3124 3127 3125 3124 3123 3123 3124 3123 3122 3122 3123 3123 3117
3122 3123 3125 3128 3129 3130 3131 3130 3131 3130 3126 3124 3125 3121 3116 3114 3113 3113 3111 3113 3114 3116 3116 3119 3120 3119 3121 3123 3123 3123 3122 3121 3120 3120 3121 3121 3119 3117 3117 3116 3115 3117 3119 3118 3113
3116 3118 3120 3122 3124 3125 3126 3125 3121 3123 3116 3120 3118 3114 3108 3108 3106 3105 3107 3110 3110 3111 3113 3117 3116 3117 3120 3120 3120 3119 3119 3118 3118 3118 3116 3113 3110 3110 3110 3108 3107 3108 3113 3110 3106
3109 3111 3114 3116 3118 3121 3120 3122 3118 3118 3114 3109 3109 3106 3105 3105 3104 3102 3105 3105 3107 3109 3112 3114 3116 3115 3117 3118 3117 3117 3117 3117 3116 3112 3112 3109 3104 3102 3101 3101 3097 3097 3102 3102 3101
3101 3104 3108 3110 3115 3114 3116 3116 3117 3115 3113 3109 3105 3105 3106 3104 3103 3103 3104 3106 3108 3110 3112 3114 3115 3115 3116 3116 3116 3115 3115 3113 3111 3111 3109 3109 3100 3097 3093 3094 3092 3092 3093 3095 3095
3093 3096 3101 3103 3107 3107 3111 3113 3114 3113 3116 3108 3103 3103 3103 3105 3104 3105 3104 3105 3106 3110 3113 3113 3111 3112 3112 3113 3113 3112 3111 3110 3109 3108 3107 3102 3105 3091 3091 3090 3086 3086 3087 3087 3087
3085 3089 3091 3095 3100 3102 3106 3109 3110 3114 3108 3103 3100 3100 3101 3102 3103 3103 3104 3105 3107 3107 3108 3108 3110 3110 3108 3109 3108 3108 3108 3107 3104 3103 3106 3098 3103 3093 3090 3087 3083 3083 3084 3085 3084
3076 3079 3083 3088 3095 3096 3101 3104 3107 3100 3099 3099 3098 3097 3099 3099 3101 3100 3103 3102 3104 3105 3104 3104 3104 3104 3104 3104 3105 3105 3104 3103 3101 3100 3097 3096 3095 3089 3087 3083 3079 3077 3075 3078 3080
3068 3069 3074 3080 3086 3089 3094 3098 3091 3085 3086 3093 3096 3096 3096 3098 3097 3098 3099 3099 3100 3102 3101 3101 3099 3100 3099 3098 3100 3102 3102 3104 3101 3097 3091 3094 3089 3085 3080 3078 3076 3076 3074 3074 3075
3059 3059 3059 3072 3076 3082 3087 3078 3067 3073 3079 3083 3090 3089 3091 3094 3096 3095 3094 3096 3097 3099 3099 3095 3094 3097 3097 3098 3099 3099 3099 3100 3095 3091 3086 3082 3080 3080 3079 3074 3074 3071 3070 3070 3070
3046 3046 3044 3065 3067 3071 3072 3051 3057 3067 3071 3077 3080 3084 3085 3089 3092 3091 3090 3091 3093 3093 3091 3088 3085 3089 3093 3092 3094 3094 3096 3097 3095 3092 3087 3076 3076 3075 3073 3074 3073 3071 3071 3070 3067
3027 3030 3027 3049 3055 3054 3038 3038 3047 3058 3066 3070 3070 3075 3078 3081 3085 3086 3085 3086 3086 3087 3088 3085 3083 3081 3085 3086 3088 3090 3089 3090 3091 3089 3084 3081 3073 3072 3071 3070 3070 3069 3067 3065 3063
3010 3011 3016 3028 3035 3032 3020 3032 3040 3043 3056 3061 3062 3065 3070 3075 3075 3077 3077 3080 3079 3080 3083 3083 3079 3074 3076 3080 3082 3081 3079 3082 3081 3078 3075 3075 3051 3065 3066 3067 3066 3064 3062 3059 3057
2998 3001 3005 3012 3011 3011 3015 3024 3032 3038 3043 3050 3053 3054 3062 3067 3069 3068 3071 3073 3073 3076 3074 3076 3074 3071 3068 3072 3071 3069 3069 3071 3072 3071 3065 3070 3052 3056 3061 3060 3059 3058 3054 3053 3051
2984 2991 2996 2998 3004 3003 3009 3009 3019 3026 3035 3039 3043 3049 3051 3054 3057 3056 3060 3063 3064 3066 3068 3071 3065 3064 3061 3064 3065 3064 3064 3065 3065 3061 3052 3047 3043 3054 3054 3055 3053 3050 3048 3046 3044
2967 2973 2981 2986 2987 2995 3004 3005 3005 3011 3021 3031 3031 3035 3041 3044 3045 3046 3051 3053 3052 3055 3056 3057 3052 3053 3051 3052 3055 3052 3049 3056 3056 3051 3052 3029 3041 3042 3045 3045 3044 3041 3038 3037 3034
2954 2962 2970 2977 2983 2986 2987 2990 2995 3003 3009 3011 3016 3024 3030 3027 3031 3038 3042 3041 3042 3043 3044 3043 3041 3043 3039 3044 3045 3042 3032 3039 3038 3037 3038 3034 3020 3036 3034 3034 3032 3031 3029 3025 3021
2940 2949 2960 2962 2970 2977 2979 2984 2987 2995 2995 3001 3008 3014 3015 3013 3027 3029 3029 3030 3032 3033 3034 3035 3035 3034 3030 3036 3037 3029 3016 3020 3022 3022 3025 3022 3013 3024 3022 3023 3021 3020 3016 3013 3012
Wind_Speed
5 5 6 7 10 12 16 19 21 23 21 20 18 15 13 8 8 6 5 5 1 3 1 4 11 8 4 4 8 3 15 19 9 13 1 4 6 5 4 10 3 9 13 16 15
8 7 7 8 9 12 14 17 19 21 24 22 20 18 14 10 8 8 6 5 5 6 4 4 8 5 9 4 1 7 12 13 13 16 4 3 6 3 5 6 11 15 22 18 14
12 9 9 10 10 12 14 15 18 20 21 24 22 19 17 12 9 8 3 5 7 7 6 4 5 8 10 11 10 12 20 13 17 13 15 12 6 6 7 10 8 13 13 17 15
15 13 11 12 13 13 16 17 18 20 22 23 24 23 17 13 6 7 3 7 10 10 8 8 8 2 2 5 6 17 18 21 20 13 20 19 17 19 15 15 13 15 14 9 14
19 17 15 15 15 15 16 19 19 20 23 24 24 26 19 13 15 13 11 15 15 12 12 11 9 5 11 13 15 15 13 19 17 15 21 21 16 14 15 14 17 16 15 18 19
23 22 18 17 17 17 18 20 21 21 24 25 26 26 23 21 12 14 9 12 14 13 12 11 13 15 13 14 15 15 17 22 20 23 16 15 18 17 18 18 21 18 22 23 28
27 25 23 21 20 20 20 21 22 24 25 26 26 27 23 15 11 10 11 10 10 10 12 15 11 12 14 10 16 19 21 23 23 14 14 11 16 20 12 17 19 21 16 16 13
29 28 28 24 23 23 23 23 22 26 27 27 27 28 24 13 12 8 7 5 0 2 5 6 7 8 11 12 14 17 15 14 1 9 12 20 18 5 8 19 18 18 7 11 12
31 29 29 28 26 26 26 26 23 28 29 28 27 24 21 19 22 14 14 13 15 11 11 10 11 11 8 8 3 3 17 11 10 5 11 16 14 7 4 8 14 16 17 15 21
33 31 30 30 28 28 27 29 27 29 30 30 20 27 22 30 23 26 24 17 19 18 14 7 6 6 9 2 6 13 9 11 7 6 9 12 14 14 17 19 22 23 19 21 24
34 33 31 31 29 30 27 29 32 30 32 31 28 31 38 32 24 22 22 17 16 16 14 8 9 10 1 6 11 13 14 15 11 10 15 18 23 25 21 23 26 24 22 23 30
36 35 33 31 31 30 28 27 35 32 37 31 29 32 21 18 18 12 11 11 11 12 10 12 10 9 7 10 11 9 9 11 9 14 17 22 26 28 27 25 24 26 24 31 33
38 36 35 31 31 30 28 27 34 31 33 37 28 15 18 12 10 8 4 9 6 6 5 12 5 8 11 9 8 5 8 14 16 20 23 27 32 30 24 18 22 20 30 31 31
38 36 36 33 31 32 28 30 29 28 21 25 11 7 7 3 2 2 8 11 9 6 8 10 8 9 10 10 5 14 11 18 22 22 14 20 10 34 17 10 20 23 26 32 37
38 37 37 33 31 33 30 29 25 21 5 2 13 10 7 5 4 3 9 12 13 5 9 2 6 6 10 12 9 16 18 21 22 24 25 24 13 17 14 18 25 30 32 35 37
40 38 39 35 32 33 29 26 22 8 9 7 13 12 10 9 9 8 10 11 7 10 9 7 5 15 14 13 15 15 15 17 13 20 5 19 14 13 20 20 14 25 29 34 37
41 39 40 36 31 30 28 26 15 10 7 9 16 16 12 9 12 14 12 12 10 7 9 13 17 17 18 21 19 11 10 5 4 1 6 9 14 14 20 17 17 23 29 26 27
41 41 40 37 34 33 29 27 19 13 29 14 12 5 14 11 14 14 14 16 12 12 19 18 14 8 7 23 19 10 9 4 5 3 10 20 9 16 21 14 12 17 20 22 24
42 47 47 39 38 36 33 36 32 30 29 28 26 25 18 19 18 15 21 21 19 20 22 15 14 16 11 4 11 17 19 14 18 25 15 9 15 18 16 11 14 17 16 17 17
46 53 56 41 43 40 42 60 38 41 27 20 31 20 22 34 22 25 20 10 11 11 22 21 23 25 26 29 20 19 16 14 9 5 5 8 14 13 16 12 14 15 17 18 16
52 57 60 50 48 48 62 59 51 44 33 30 30 28 25 26 29 29 20 18 23 23 14 17 21 17 19 24 22 20 23 25 24 25 4 1 5 9 11 13 10 16 19 20 22
62 51 57 56 56 61 69 64 50 50 48 41 32 37 37 29 30 34 32 28 21 22 21 20 23 26 26 30 32 31 30 24 26 13 24 23 38 30 26 25 22 23 22 24 26
60 62 46 46 63 65 69 61 58 51 43 39 41 37 36 40 34 37 40 39 37 37 29 19 17 17 17 17 16 20 18 34 29 30 30 19 21 13 18 18 14 19 25 29 32
58 48 35 45 47 61 66 65 63 59 48 38 42 44 36 41 43 41 37 37 37 37 39 39 37 34 28 17 9 23 20 18 19 17 35 39 52 39 37 34 33 30 29 32 33
51 53 47 55 55 54 57 62 66 62 55 52 51 44 44 44 39 49 44 41 44 43 43 39 41 44 46 41 37 41 45 38 39 44 30 60 42 45 30 28 34 37 36 36 37
60 58 54 52 49 54 53 60 59 57 61 60 60 51 52 53 51 45 46 47 47 38 45 41 36 37 42 39 35 40 47 42 46 48 51 57 66 47 46 43 45 45 43 37 33
66 68 65 56 52 47 59 56 46 53 54 54 55 50 54 58 47 45 47 46 43 41 43 39 38 32 25 24 17 26 51 45 41 42 43 48 52 45 43 39 39 30 32 35 36
Wind_Direction
265 297 315 337 344 351 359 4 14 15 12 13 2 348 339 332 313 304 313 270 354 28 99 131 126 72 57 110 132 196 262 261 322 26 180 248 306 305 304 277 217 257 271 274 285
256 278 298 314 326 335 348 354 360 9 13 10 9 358 339 333 306 297 291 257 311 318 289 268 262 149 252 313 235 230 272 266 294 314 282 4 333 3 249 307 299 266 264 268 271
251 263 283 298 309 323 334 342 348 353 1 9 6 1 351 330 306 299 235 239 290 313 276 298 256 186 214 222 234 248 262 295 301 309 281 256 224 217 243 243 284 312 279 266 274
251 260 273 286 299 310 321 328 338 342 347 352 358 359 350 335 292 289 268 272 291 289 282 279 245 192 267 249 231 271 262 267 271 280 279 276 252 236 234 244 268 295 287 283 287
255 257 265 278 288 299 312 317 326 333 334 342 345 352 346 336 294 295 280 274 275 271 272 276 271 220 235 243 267 257 255 263 275 274 277 277 269 270 261 247 248 250 259 280 285
255 260 264 271 280 289 300 306 316 324 326 333 338 346 348 337 323 299 283 276 267 266 263 265 246 245 258 235 236 247 244 244 253 243 248 260 275 278 269 264 255 260 254 254 255
253 258 262 267 276 284 291 298 309 314 319 325 330 333 341 333 329 299 288 277 269 262 250 260 282 260 260 254 231 248 258 256 263 258 243 249 254 258 293 261 247 262 278 272 285
252 258 264 266 273 280 286 292 302 304 311 318 326 325 338 345 337 322 334 321 226 243 240 259 263 260 262 258 243 268 276 282 300 256 218 237 283 305 315 243 234 266 269 272 296
253 256 262 268 273 277 283 289 296 298 303 311 320 320 326 329 316 298 289 308 287 288 267 252 260 270 252 267 288 338 280 317 16 170 189 222 277 198 260 261 265 272 279 268 262
253 256 259 265 269 274 280 286 290 294 297 307 311 318 312 301 283 281 295 297 276 269 264 258 258 217 148 203 254 310 313 290 324 130 311 272 256 267 239 238 252 266 268 253 247
252 254 257 262 268 274 279 285 287 291 295 302 308 307 305 294 288 278 269 277 260 248 243 216 215 208 153 283 260 280 286 290 283 274 290 293 283 279 273 268 271 265 249 256 259
253 255 257 260 267 272 278 286 289 297 297 301 309 305 292 313 306 265 264 241 232 244 220 199 217 161 213 240 270 260 273 282 299 295 279 273 271 270 276 281 279 259 247 240 244
250 254 258 259 264 269 274 280 284 296 302 309 319 309 317 311 268 260 204 179 143 144 175 191 133 200 224 241 267 288 306 309 293 292 271 284 284 288 282 275 285 264 232 228 238
248 251 254 257 262 265 270 273 285 292 316 315 291 312 311 309 21 257 191 163 158 163 195 230 210 248 258 263 285 290 271 273 280 296 291 294 288 291 307 254 271 245 218 223 234
248 249 252 252 256 260 263 274 284 291 329 293 273 287 291 249 177 125 146 145 142 169 203 219 272 280 286 297 279 279 284 288 291 290 294 293 268 288 320 293 254 224 227 225 233
245 247 248 248 251 257 264 269 274 266 239 243 254 266 272 228 208 186 196 189 207 191 255 266 281 246 286 292 282 295 290 306 299 281 267 288 267 289 297 282 231 231 229 232 236
241 244 247 246 247 250 253 256 255 211 199 245 250 269 279 248 220 229 220 220 222 224 255 279 268 267 273 269 268 279 287 304 301 153 210 311 331 278 299 290 265 261 242 232 234
241 241 243 242 241 240 242 241 230 232 214 222 199 173 262 217 241 233 243 254 250 248 275 277 287 292 257 248 252 208 221 243 267 256 287 292 256 275 290 285 248 238 243 244 240
237 240 237 233 235 236 232 228 232 234 230 228 226 252 227 236 229 246 242 246 243 244 263 276 267 254 279 249 260 259 263 276 282 289 284 236 247 242 270 239 233 228 233 246 240
229 240 241 230 233 231 231 240 241 235 243 232 228 239 247 241 236 227 225 228 241 245 248 257 273 255 249 274 267 245 248 251 251 294 266 240 238 261 261 225 220 215 232 230 232
226 233 238 232 230 221 228 236 242 238 241 227 230 237 241 229 235 243 229 247 249 246 253 260 256 260 256 235 247 259 260 249 254 244 238 277 251 270 230 249 240 217 226 234 234
225 229 229 227 216 223 239 239 241 246 248 238 237 229 241 234 233 240 246 251 263 252 245 255 272 268 264 253 262 259 248 252 237 240 240 260 261 251 260 263 268 269 254 239 243
238 226 228 230 208 223 239 234 241 237 240 237 230 231 242 233 236 244 246 247 252 257 260 257 255 276 287 288 246 249 259 246 249 268 255 245 250 265 249 248 273 271 256 261 259
234 226 215 205 224 226 226 232 234 236 239 226 240 236 235 240 240 247 245 260 265 263 261 260 256 247 251 238 233 275 254 241 245 268 260 249 263 253 256 266 280 281 270 265 264
229 229 222 209 210 224 227 228 231 232 238 232 233 233 237 232 232 231 244 254 256 266 265 258 248 260 270 267 269 263 265 261 255 249 263 263 261 268 264 262 262 266 272 281 282
234 230 231 231 217 215 222 227 233 236 233 234 234 237 243 239 245 248 251 249 251 254 248 249 246 253 260 263 256 268 269 268 264 264 258 261 267 270 270 271 274 274 280 276 267
232 237 238 239 232 226 223 226 231 238 239 241 246 249 246 252 259 265 257 258 259 255 251 247 240 249 255 264 264 260 263 266 272 271 266 256 271 277 276 276 279 276 272 270 261